Terminal Aerodrome Forecast
Issued by NWS Mt. Holly, NJ

Home | Current Version | Previous Version | Text Only | Print | Product List | Glossary On
Versions: 1 2 3 4 5 6 7 8 9 10 11 12 13 14 15 16 17 18 19 20 21 22 23 24 25 26 27 28 29 30 31 32 33 34 35 36 37 38 39 40 41 42 43 44
000
FTAK31 PANC 241447 AAA
TAFABE
TAF AMD
PABE 241447Z 2415/2512 14011KT P6SM VCFG SCT008 BKN035 OVC050
      TEMPO 2415/2418 5SM BR OVC012
     FM242000 16016KT P6SM SCT008 BKN012
     FM250500 18007KT P6SM SCT012 BKN025=

USA.gov is the U.S. government's official web portal to all federal, state and local government web resources and services.